Home > Weather > Kolonia > Past weeks

Flag for Micronesia Past Weather in Kolonia, Pohnpei, Micronesia — Yesterday and Last 2 Weeks

Now
77 °F

Passing clouds.


Feels Like: 78 °F
Forecast: 76 / 89 °F
Wind: 6 mph from South

Location: Pohnpei

Current Time: Aug 29, 2016 at 1:13:41 AM

Latest Report: Aug 28, 2016 at 11:53 PM


Visibility: 15 mi

Pressure: 29.91 "Hg

Humidity: 91%

Dew Point: 74 °F

Location of KoloniaLocation

Past Weather in Kolonia — Graph

°F

Kolonia Temperature Yesterday

Maximum temperature yesterday: 86 °F (at 9:52 AM)
Minimum temperature yesterday: 75 °F (at 5:54 AM)
Average temperature yesterday: 80 °F

High & Low Weather Summary for the Past Weeks

 TemperatureHumidityPressure
High93 °F (Aug 15, 10:53 AM)100% (Aug 20, 7:52 AM)29.96 "Hg (Aug 20, 7:52 AM)
Low75 °F (Aug 15, 12:50 AM)57% (Aug 15, 10:53 AM)29.72 "Hg (Aug 17, 3:50 PM)
Average81 °F85%29.82 "Hg
* Reported Aug 14 12:52 AM — Aug 28 11:53 PM, Kolonia, Weather by CustomWeather, © 2016

Note: Actual official high and low records may vary slightly from our data, if they occured in-between our weather recording intervals... More about our weather records

Advertising

Kolonia Weather History for the Previous 24 Hours

Scroll right to see more
 ConditionsComfort  
Time TempWeatherWind HumidityBarometerVisibility
11:53 PM
Sun, Aug 28
77 °FPassing clouds.6 mph91%29.91 "Hg15 mi
10:53 PM77 °FPassing clouds.3 mph91%29.93 "Hg15 mi
9:53 PM77 °FPartly cloudy.6 mph95%29.93 "Hg15 mi
8:52 PM79 °FPartly cloudy.3 mph91%29.90 "Hg15 mi
7:52 PM80 °FOvercast.3 mph92%29.89 "Hg15 mi
6:53 PM81 °FMostly cloudy.3 mph92%29.88 "Hg15 mi
5:52 PM84 °FCloudy.3 mph84%29.88 "Hg15 mi
4:51 PM84 °FMostly cloudy.3 mph80%29.85 "Hg15 mi
3:52 PM84 °FMostly cloudy.2 mph86%29.85 "Hg15 mi
2:50 PM82 °FMostly cloudy.2 mph89%29.85 "Hg15 mi
1:52 PM79 °FMostly cloudy.2 mph96%29.88 "Hg13 mi
12:50 PM81 °FThunderstorms. Mostly cloudy.2 mph92%29.90 "Hg12 mi
11:52 AM85 °FMostly cloudy.2 mph82%29.92 "Hg15 mi
10:53 AM82 °FMostly cloudy.2 mph92%29.93 "Hg15 mi
9:52 AM86 °FMore clouds than sun.2 mph70%29.95 "Hg15 mi
8:52 AM83 °FScattered clouds.3 mph87%29.94 "Hg15 mi
7:50 AM80 °FPassing clouds.6 mph83%29.93 "Hg15 mi
6:53 AM76 °FScattered clouds.No wind97%29.92 "Hg15 mi
5:54 AM75 °FPartly cloudy.3 mph95%29.91 "Hg15 mi
4:52 AM75 °FPassing clouds.5 mph94%29.89 "Hg15 mi
3:52 AM76 °FPassing clouds.5 mph94%29.89 "Hg15 mi
2:51 AM76 °FPassing clouds.3 mph94%29.88 "Hg15 mi
1:52 AM76 °FPartly cloudy.6 mph94%29.89 "Hg15 mi
Weather by CustomWeather, © 2016

See weather overviewHow to use our weather pages